owner,sensor,date,latitude,longitude,air_pressure(mBar),qcFlag 
WAVCIS,ioos:station:WAVCIS:CSI03:1,2013-02-01T00:00:00Z,29.4412,-92.0613,1019.77,11111222 
WAVCIS,ioos:station:WAVCIS:CSI03:1,2013-02-01T01:00:00Z,29.4412,-92.0613,1019.86,11111222 
WAVCIS,ioos:station:WAVCIS:CSI03:1,2013-02-01T02:00:00Z,29.4412,-92.0613,1020.13,11111222 
WAVCIS,ioos:station:WAVCIS:CSI03:1,2013-02-01T03:00:00Z,29.4412,-92.0613,1020.56,11111222 
WAVCIS,ioos:station:WAVCIS:CSI03:1,2013-02-01T04:00:00Z,29.4412,-92.0613,1021.33,11111222 
WAVCIS,ioos:station:WAVCIS:CSI03:1,2013-02-01T05:00:00Z,29.4412,-92.0613,1021.22,11111222 
WAVCIS,ioos:station:WAVCIS:CSI03:1,2013-02-01T06:00:00Z,29.4412,-92.0613,1021.44,11111222 
WAVCIS,ioos:station:WAVCIS:CSI03:1,2013-02-01T07:00:00Z,29.4412,-92.0613,1021.16,11111222 
WAVCIS,ioos:station:WAVCIS:CSI03:1,2013-02-01T08:00:00Z,29.4412,-92.0613,1020.71,11111222 
WAVCIS,ioos:station:WAVCIS:CSI03:1,2013-02-01T09:00:00Z,29.4412,-92.0613,1020.27,11111222 
WAVCIS,ioos:station:WAVCIS:CSI03:1,2013-02-01T10:00:00Z,29.4412,-92.0613,1020.42,11111222 
WAVCIS,ioos:station:WAVCIS:CSI03:1,2013-02-01T11:00:00Z,29.4412,-92.0613,1020.7,11111222 
WAVCIS,ioos:station:WAVCIS:CSI03:1,2013-02-01T12:00:00Z,29.4412,-92.0613,1021.21,11111222 
WAVCIS,ioos:station:WAVCIS:CSI03:1,2013-02-01T13:00:00Z,29.4412,-92.0613,1021.86,11111222 
WAVCIS,ioos:station:WAVCIS:CSI03:1,2013-02-01T14:00:00Z,29.4412,-92.0613,1022.24,11111222 
WAVCIS,ioos:station:WAVCIS:CSI03:1,2013-02-01T15:00:00Z,29.4412,-92.0613,1022.61,11111222 
WAVCIS,ioos:station:WAVCIS:CSI03:1,2013-02-01T16:00:00Z,29.4412,-92.0613,1023.23,11111222 
WAVCIS,ioos:station:WAVCIS:CSI03:1,2013-02-01T17:00:00Z,29.4412,-92.0613,1023.35,11111222 
WAVCIS,ioos:station:WAVCIS:CSI03:1,2013-02-01T18:00:00Z,29.4412,-92.0613,1022.4,11111222 
WAVCIS,ioos:station:WAVCIS:CSI03:1,2013-02-01T19:00:00Z,29.4412,-92.0613,1021.75,11111222 
WAVCIS,ioos:station:WAVCIS:CSI03:1,2013-02-01T20:00:00Z,29.4412,-92.0613,1021.23,11111222 
WAVCIS,ioos:station:WAVCIS:CSI03:1,2013-02-01T21:00:00Z,29.4412,-92.0613,1020.58,11111222 
WAVCIS,ioos:station:WAVCIS:CSI03:1,2013-02-01T22:00:00Z,29.4412,-92.0613,1020.49,11111222 
WAVCIS,ioos:station:WAVCIS:CSI03:1,2013-02-01T23:00:00Z,29.4412,-92.0613,1020.55,11111222 
WAVCIS,ioos:station:WAVCIS:CSI03:1,2013-02-02T00:00:00Z,29.4412,-92.0613,1020.13,11111222 
WAVCIS,ioos:station:WAVCIS:CSI03:1,2013-02-02T01:00:00Z,29.4412,-92.0613,1020.33,11111222 
WAVCIS,ioos:station:WAVCIS:CSI03:1,2013-02-02T02:00:00Z,29.4412,-92.0613,1020.23,11111222 
WAVCIS,ioos:station:WAVCIS:CSI03:1,2013-02-02T03:00:00Z,29.4412,-92.0613,1020.37,11111222 
WAVCIS,ioos:station:WAVCIS:CSI03:1,2013-02-02T04:00:00Z,29.4412,-92.0613,1020.45,11111222 
WAVCIS,ioos:station:WAVCIS:CSI03:1,2013-02-02T05:00:00Z,29.4412,-92.0613,1020.27,11111222 
WAVCIS,ioos:station:WAVCIS:CSI03:1,2013-02-02T06:00:00Z,29.4412,-92.0613,1019.62,11111222 
WAVCIS,ioos:station:WAVCIS:CSI03:1,2013-02-02T07:00:00Z,29.4412,-92.0613,1019.45,11111222 
WAVCIS,ioos:station:WAVCIS:CSI03:1,2013-02-02T08:00:00Z,29.4412,-92.0613,1019.4,11111222 
WAVCIS,ioos:station:WAVCIS:CSI03:1,2013-02-02T09:00:00Z,29.4412,-92.0613,1019.21,11111222 
WAVCIS,ioos:station:WAVCIS:CSI03:1,2013-02-02T10:00:00Z,29.4412,-92.0613,1018.89,11111222 
WAVCIS,ioos:station:WAVCIS:CSI03:1,2013-02-02T11:00:00Z,29.4412,-92.0613,1018.78,11111222 
WAVCIS,ioos:station:WAVCIS:CSI03:1,2013-02-02T12:00:00Z,29.4412,-92.0613,1018.93,11111222 
WAVCIS,ioos:station:WAVCIS:CSI03:1,2013-02-02T13:00:00Z,29.4412,-92.0613,1019.09,11111222 
WAVCIS,ioos:station:WAVCIS:CSI03:1,2013-02-02T14:00:00Z,29.4412,-92.0613,1019.37,11111222 
WAVCIS,ioos:station:WAVCIS:CSI03:1,2013-02-02T15:00:00Z,29.4412,-92.0613,1019.68,11111222 
WAVCIS,ioos:station:WAVCIS:CSI03:1,2013-02-02T16:00:00Z,29.4412,-92.0613,1019.76,11111222 
WAVCIS,ioos:station:WAVCIS:CSI03:1,2013-02-02T17:00:00Z,29.4412,-92.0613,1019.27,11111222 
WAVCIS,ioos:station:WAVCIS:CSI03:1,2013-02-02T18:00:00Z,29.4412,-92.0613,1018.53,11111222 
WAVCIS,ioos:station:WAVCIS:CSI03:1,2013-02-02T19:00:00Z,29.4412,-92.0613,1017.67,11111222 
WAVCIS,ioos:station:WAVCIS:CSI03:1,2013-02-02T20:00:00Z,29.4412,-92.0613,1017.16,11111222 
WAVCIS,ioos:station:WAVCIS:CSI03:1,2013-02-02T21:00:00Z,29.4412,-92.0613,1016.86,11111222 
WAVCIS,ioos:station:WAVCIS:CSI03:1,2013-02-02T22:00:00Z,29.4412,-92.0613,1016.45,11111222 
WAVCIS,ioos:station:WAVCIS:CSI03:1,2013-02-02T23:00:00Z,29.4412,-92.0613,1016.46,11111222 
WAVCIS,ioos:station:WAVCIS:CSI03:1,2013-02-03T00:00:00Z,29.4412,-92.0613,1016.47,11111222 
WAVCIS,ioos:station:WAVCIS:CSI03:1,2013-02-03T01:00:00Z,29.4412,-92.0613,1016.97,11111222 
WAVCIS,ioos:station:WAVCIS:CSI03:1,2013-02-03T02:00:00Z,29.4412,-92.0613,1017.56,11111222 
WAVCIS,ioos:station:WAVCIS:CSI03:1,2013-02-03T03:00:00Z,29.4412,-92.0613,1017.91,11111222 
WAVCIS,ioos:station:WAVCIS:CSI03:1,2013-02-03T04:00:00Z,29.4412,-92.0613,1017.81,11111222 
WAVCIS,ioos:station:WAVCIS:CSI03:1,2013-02-03T05:00:00Z,29.4412,-92.0613,1017.87,11111222 
WAVCIS,ioos:station:WAVCIS:CSI03:1,2013-02-03T06:00:00Z,29.4412,-92.0613,1017.9,11111222 
WAVCIS,ioos:station:WAVCIS:CSI03:1,2013-02-03T07:00:00Z,29.4412,-92.0613,1017.6,11111222 
WAVCIS,ioos:station:WAVCIS:CSI03:1,2013-02-03T08:00:00Z,29.4412,-92.0613,1017.39,11111222 
WAVCIS,ioos:station:WAVCIS:CSI03:1,2013-02-03T09:00:00Z,29.4412,-92.0613,1017.19,11111222 
WAVCIS,ioos:station:WAVCIS:CSI03:1,2013-02-03T10:00:00Z,29.4412,-92.0613,1017.45,11111222 
WAVCIS,ioos:station:WAVCIS:CSI03:1,2013-02-03T11:00:00Z,29.4412,-92.0613,1017.53,11111222 
WAVCIS,ioos:station:WAVCIS:CSI03:1,2013-02-03T12:00:00Z,29.4412,-92.0613,1017.83,11111222 
WAVCIS,ioos:station:WAVCIS:CSI03:1,2013-02-03T13:00:00Z,29.4412,-92.0613,1018.42,11111222 
WAVCIS,ioos:station:WAVCIS:CSI03:1,2013-02-03T14:00:00Z,29.4412,-92.0613,1018.92,11111222 
WAVCIS,ioos:station:WAVCIS:CSI03:1,2013-02-03T15:00:00Z,29.4412,-92.0613,1019.33,11111222 
WAVCIS,ioos:station:WAVCIS:CSI03:1,2013-02-03T16:00:00Z,29.4412,-92.0613,1019.72,11111222 
WAVCIS,ioos:station:WAVCIS:CSI03:1,2013-02-03T17:00:00Z,29.4412,-92.0613,1019.78,11111222 
WAVCIS,ioos:station:WAVCIS:CSI03:1,2013-02-03T18:00:00Z,29.4412,-92.0613,1019.17,11111222 
WAVCIS,ioos:station:WAVCIS:CSI03:1,2013-02-03T19:00:00Z,29.4412,-92.0613,1018.24,11111222 
WAVCIS,ioos:station:WAVCIS:CSI03:1,2013-02-03T20:00:00Z,29.4412,-92.0613,1017.43,11111222 
WAVCIS,ioos:station:WAVCIS:CSI03:1,2013-02-03T21:00:00Z,29.4412,-92.0613,1016.68,11111222 
WAVCIS,ioos:station:WAVCIS:CSI03:1,2013-02-03T22:00:00Z,29.4412,-92.0613,1015.96,11111222 
WAVCIS,ioos:station:WAVCIS:CSI03:1,2013-02-03T23:00:00Z,29.4412,-92.0613,1015.61,11111222 
WAVCIS,ioos:station:WAVCIS:CSI03:1,2013-02-04T00:00:00Z,29.4412,-92.0613,1015.41,11111222 
WAVCIS,ioos:station:WAVCIS:CSI03:1,2013-02-04T01:00:00Z,29.4412,-92.0613,1015.31,11111222 
WAVCIS,ioos:station:WAVCIS:CSI03:1,2013-02-04T02:00:00Z,29.4412,-92.0613,1015.31,11111222 
WAVCIS,ioos:station:WAVCIS:CSI03:1,2013-02-04T03:00:00Z,29.4412,-92.0613,1015.38,11111222 
WAVCIS,ioos:station:WAVCIS:CSI03:1,2013-02-04T04:00:00Z,29.4412,-92.0613,1014.95,11111222 
WAVCIS,ioos:station:WAVCIS:CSI03:1,2013-02-04T05:00:00Z,29.4412,-92.0613,1014.27,11111222 
WAVCIS,ioos:station:WAVCIS:CSI03:1,2013-02-04T06:00:00Z,29.4412,-92.0613,1013.53,11111222 
WAVCIS,ioos:station:WAVCIS:CSI03:1,2013-02-04T07:00:00Z,29.4412,-92.0613,1012.71,11111222 
WAVCIS,ioos:station:WAVCIS:CSI03:1,2013-02-04T08:00:00Z,29.4412,-92.0613,1012.43,11111222 
WAVCIS,ioos:station:WAVCIS:CSI03:1,2013-02-04T09:00:00Z,29.4412,-92.0613,1011.53,11111222 
WAVCIS,ioos:station:WAVCIS:CSI03:1,2013-02-04T10:00:00Z,29.4412,-92.0613,1011.29,11111222 
WAVCIS,ioos:station:WAVCIS:CSI03:1,2013-02-04T11:00:00Z,29.4412,-92.0613,1010.78,11111222 
WAVCIS,ioos:station:WAVCIS:CSI03:1,2013-02-04T12:00:00Z,29.4412,-92.0613,1010.91,11111222 
WAVCIS,ioos:station:WAVCIS:CSI03:1,2013-02-04T13:00:00Z,29.4412,-92.0613,1011.07,11111222 
WAVCIS,ioos:station:WAVCIS:CSI03:1,2013-02-04T14:00:00Z,29.4412,-92.0613,1010.9,11111222 
WAVCIS,ioos:station:WAVCIS:CSI03:1,2013-02-04T15:00:00Z,29.4412,-92.0613,1011.24,11111222 
WAVCIS,ioos:station:WAVCIS:CSI03:1,2013-02-04T16:00:00Z,29.4412,-92.0613,1010.98,11111222 
WAVCIS,ioos:station:WAVCIS:CSI03:1,2013-02-04T17:00:00Z,29.4412,-92.0613,1010.22,11111222 
WAVCIS,ioos:station:WAVCIS:CSI03:1,2013-02-04T18:00:00Z,29.4412,-92.0613,1010.11,11111222 
WAVCIS,ioos:station:WAVCIS:CSI03:1,2013-02-04T19:00:00Z,29.4412,-92.0613,1008.83,11111222 
WAVCIS,ioos:station:WAVCIS:CSI03:1,2013-02-04T20:00:00Z,29.4412,-92.0613,1007.74,11111222 
WAVCIS,ioos:station:WAVCIS:CSI03:1,2013-02-04T21:00:00Z,29.4412,-92.0613,1006.71,11111222 
WAVCIS,ioos:station:WAVCIS:CSI03:1,2013-02-04T22:00:00Z,29.4412,-92.0613,1006.63,11111222 
WAVCIS,ioos:station:WAVCIS:CSI03:1,2013-02-04T23:00:00Z,29.4412,-92.0613,1006.39,11111222 
WAVCIS,ioos:station:WAVCIS:CSI03:1,2013-02-05T00:00:00Z,29.4412,-92.0613,1006.7,11111222 
WAVCIS,ioos:station:WAVCIS:CSI03:1,2013-02-05T01:00:00Z,29.4412,-92.0613,1006.86,11111222 
WAVCIS,ioos:station:WAVCIS:CSI03:1,2013-02-05T02:00:00Z,29.4412,-92.0613,1007.42,11111222 
WAVCIS,ioos:station:WAVCIS:CSI03:1,2013-02-05T03:00:00Z,29.4412,-92.0613,1007.56,11111222 
WAVCIS,ioos:station:WAVCIS:CSI03:1,2013-02-05T04:00:00Z,29.4412,-92.0613,1007.85,11111222 
WAVCIS,ioos:station:WAVCIS:CSI03:1,2013-02-05T05:00:00Z,29.4412,-92.0613,1007.6,11111222 
WAVCIS,ioos:station:WAVCIS:CSI03:1,2013-02-05T06:00:00Z,29.4412,-92.0613,1007.41,11111222 
WAVCIS,ioos:station:WAVCIS:CSI03:1,2013-02-05T07:00:00Z,29.4412,-92.0613,1007.48,11111222 
WAVCIS,ioos:station:WAVCIS:CSI03:1,2013-02-05T08:00:00Z,29.4412,-92.0613,1007.09,11111222 
WAVCIS,ioos:station:WAVCIS:CSI03:1,2013-02-05T09:00:00Z,29.4412,-92.0613,1006.88,11111222 
WAVCIS,ioos:station:WAVCIS:CSI03:1,2013-02-05T10:00:00Z,29.4412,-92.0613,1007.12,11111222 
WAVCIS,ioos:station:WAVCIS:CSI03:1,2013-02-05T11:00:00Z,29.4412,-92.0613,1006.81,11111222 
WAVCIS,ioos:station:WAVCIS:CSI03:1,2013-02-05T12:00:00Z,29.4412,-92.0613,1007.55,11111222 
WAVCIS,ioos:station:WAVCIS:CSI03:1,2013-02-05T13:00:00Z,29.4412,-92.0613,1008.2,11111222 
WAVCIS,ioos:station:WAVCIS:CSI03:1,2013-02-05T14:00:00Z,29.4412,-92.0613,1008.74,11111222 
WAVCIS,ioos:station:WAVCIS:CSI03:1,2013-02-05T15:00:00Z,29.4412,-92.0613,1009.31,11111222 
WAVCIS,ioos:station:WAVCIS:CSI03:1,2013-02-05T16:00:00Z,29.4412,-92.0613,1009.98,11111222 
WAVCIS,ioos:station:WAVCIS:CSI03:1,2013-02-05T17:00:00Z,29.4412,-92.0613,1010.31,11111222 
WAVCIS,ioos:station:WAVCIS:CSI03:1,2013-02-05T18:00:00Z,29.4412,-92.0613,1010.38,11111222 
WAVCIS,ioos:station:WAVCIS:CSI03:1,2013-02-05T19:00:00Z,29.4412,-92.0613,1009.56,11111222 
WAVCIS,ioos:station:WAVCIS:CSI03:1,2013-02-05T20:00:00Z,29.4412,-92.0613,1008.91,11111222 
WAVCIS,ioos:station:WAVCIS:CSI03:1,2013-02-05T21:00:00Z,29.4412,-92.0613,1008.75,11111222 
WAVCIS,ioos:station:WAVCIS:CSI03:1,2013-02-05T22:00:00Z,29.4412,-92.0613,1008.4,11111222 
WAVCIS,ioos:station:WAVCIS:CSI03:1,2013-02-05T23:00:00Z,29.4412,-92.0613,1008.64,11111222 
WAVCIS,ioos:station:WAVCIS:CSI03:1,2013-02-06T00:00:00Z,29.4412,-92.0613,1008.85,11111222 
WAVCIS,ioos:station:WAVCIS:CSI03:1,2013-02-06T01:00:00Z,29.4412,-92.0613,1009.26,11111222 
WAVCIS,ioos:station:WAVCIS:CSI03:1,2013-02-06T02:00:00Z,29.4412,-92.0613,1009.76,11111222 
WAVCIS,ioos:station:WAVCIS:CSI03:1,2013-02-06T03:00:00Z,29.4412,-92.0613,1010.28,11111222 
WAVCIS,ioos:station:WAVCIS:CSI03:1,2013-02-06T04:00:00Z,29.4412,-92.0613,1010.32,11111222 
WAVCIS,ioos:station:WAVCIS:CSI03:1,2013-02-06T05:00:00Z,29.4412,-92.0613,1010.37,11111222 
WAVCIS,ioos:station:WAVCIS:CSI03:1,2013-02-06T06:00:00Z,29.4412,-92.0613,1010.21,11111222 
WAVCIS,ioos:station:WAVCIS:CSI03:1,2013-02-06T07:00:00Z,29.4412,-92.0613,1010.19,11111222 
WAVCIS,ioos:station:WAVCIS:CSI03:1,2013-02-06T08:00:00Z,29.4412,-92.0613,1010.49,11111222 
WAVCIS,ioos:station:WAVCIS:CSI03:1,2013-02-06T09:00:00Z,29.4412,-92.0613,1010.63,11111222 
WAVCIS,ioos:station:WAVCIS:CSI03:1,2013-02-06T10:00:00Z,29.4412,-92.0613,1010.53,11111222 
WAVCIS,ioos:station:WAVCIS:CSI03:1,2013-02-06T11:00:00Z,29.4412,-92.0613,1010.54,11111222 
WAVCIS,ioos:station:WAVCIS:CSI03:1,2013-02-06T12:00:00Z,29.4412,-92.0613,1011.52,11111222 
WAVCIS,ioos:station:WAVCIS:CSI03:1,2013-02-06T13:00:00Z,29.4412,-92.0613,1011.89,11111222 
WAVCIS,ioos:station:WAVCIS:CSI03:1,2013-02-06T14:00:00Z,29.4412,-92.0613,1012.08,11111222 
WAVCIS,ioos:station:WAVCIS:CSI03:1,2013-02-06T15:00:00Z,29.4412,-92.0613,1011.9,11111222 
WAVCIS,ioos:station:WAVCIS:CSI03:1,2013-02-06T16:00:00Z,29.4412,-92.0613,1012.25,11111222 
WAVCIS,ioos:station:WAVCIS:CSI03:1,2013-02-06T17:00:00Z,29.4412,-92.0613,1012.65,11111222 
WAVCIS,ioos:station:WAVCIS:CSI03:1,2013-02-06T18:00:00Z,29.4412,-92.0613,1011.13,11111222 
WAVCIS,ioos:station:WAVCIS:CSI03:1,2013-02-06T19:00:00Z,29.4412,-92.0613,1010.14,11111222 
WAVCIS,ioos:station:WAVCIS:CSI03:1,2013-02-06T20:00:00Z,29.4412,-92.0613,1009.72,11111222 
WAVCIS,ioos:station:WAVCIS:CSI03:1,2013-02-06T21:00:00Z,29.4412,-92.0613,1008.89,11111222 
WAVCIS,ioos:station:WAVCIS:CSI03:1,2013-02-06T22:00:00Z,29.4412,-92.0613,1008.29,11111222 
WAVCIS,ioos:station:WAVCIS:CSI03:1,2013-02-06T23:00:00Z,29.4412,-92.0613,1007.46,11111222 
WAVCIS,ioos:station:WAVCIS:CSI03:1,2013-02-07T00:00:00Z,29.4412,-92.0613,1008.73,11111222 
WAVCIS,ioos:station:WAVCIS:CSI03:1,2013-02-07T01:00:00Z,29.4412,-92.0613,1008.4,11111222 
WAVCIS,ioos:station:WAVCIS:CSI03:1,2013-02-07T02:00:00Z,29.4412,-92.0613,1008.65,11111222 
WAVCIS,ioos:station:WAVCIS:CSI03:1,2013-02-07T03:00:00Z,29.4412,-92.0613,1007.34,11111222 
WAVCIS,ioos:station:WAVCIS:CSI03:1,2013-02-07T04:00:00Z,29.4412,-92.0613,1006.82,11111222 
WAVCIS,ioos:station:WAVCIS:CSI03:1,2013-02-07T05:00:00Z,29.4412,-92.0613,1005.91,11111222 
WAVCIS,ioos:station:WAVCIS:CSI03:1,2013-02-07T06:00:00Z,29.4412,-92.0613,1005.25,11111222 
WAVCIS,ioos:station:WAVCIS:CSI03:1,2013-02-07T07:00:00Z,29.4412,-92.0613,1004.83,11111222 
WAVCIS,ioos:station:WAVCIS:CSI03:1,2013-02-07T08:00:00Z,29.4412,-92.0613,1004.48,11111222 
WAVCIS,ioos:station:WAVCIS:CSI03:1,2013-02-07T09:00:00Z,29.4412,-92.0613,1004.81,11111222 
WAVCIS,ioos:station:WAVCIS:CSI03:1,2013-02-07T10:00:00Z,29.4412,-92.0613,1004.36,11111222 
WAVCIS,ioos:station:WAVCIS:CSI03:1,2013-02-07T11:00:00Z,29.4412,-92.0613,1004.52,11111222 
WAVCIS,ioos:station:WAVCIS:CSI03:1,2013-02-07T12:00:00Z,29.4412,-92.0613,1005.71,11111222 
WAVCIS,ioos:station:WAVCIS:CSI03:1,2013-02-07T13:00:00Z,29.4412,-92.0613,1007.07,11111222 
WAVCIS,ioos:station:WAVCIS:CSI03:1,2013-02-07T14:00:00Z,29.4412,-92.0613,1008.01,11111222 
WAVCIS,ioos:station:WAVCIS:CSI03:1,2013-02-07T15:00:00Z,29.4412,-92.0613,1008.48,11111222 
WAVCIS,ioos:station:WAVCIS:CSI03:1,2013-02-07T16:00:00Z,29.4412,-92.0613,1008.59,11111222 
WAVCIS,ioos:station:WAVCIS:CSI03:1,2013-02-07T17:00:00Z,29.4412,-92.0613,1008.55,11111222 
WAVCIS,ioos:station:WAVCIS:CSI03:1,2013-02-07T18:00:00Z,29.4412,-92.0613,1008.53,11111222 
WAVCIS,ioos:station:WAVCIS:CSI03:1,2013-02-07T19:00:00Z,29.4412,-92.0613,1007.83,11111222 
WAVCIS,ioos:station:WAVCIS:CSI03:1,2013-02-07T20:00:00Z,29.4412,-92.0613,1007.48,11111222 
WAVCIS,ioos:station:WAVCIS:CSI03:1,2013-02-07T21:00:00Z,29.4412,-92.0613,1007.3,11111222 
WAVCIS,ioos:station:WAVCIS:CSI03:1,2013-02-07T22:00:00Z,29.4412,-92.0613,1007.29,11111222 
WAVCIS,ioos:station:WAVCIS:CSI03:1,2013-02-07T23:00:00Z,29.4412,-92.0613,1007.28,11111222 
WAVCIS,ioos:station:WAVCIS:CSI03:1,2013-02-08T00:00:00Z,29.4412,-92.0613,1007.4,11111222 
WAVCIS,ioos:station:WAVCIS:CSI03:1,2013-02-08T01:00:00Z,29.4412,-92.0613,1007.69,11111222 
WAVCIS,ioos:station:WAVCIS:CSI03:1,2013-02-08T02:00:00Z,29.4412,-92.0613,1008.37,11111222 
WAVCIS,ioos:station:WAVCIS:CSI03:1,2013-02-08T03:00:00Z,29.4412,-92.0613,1008.37,11111222 
WAVCIS,ioos:station:WAVCIS:CSI03:1,2013-02-08T04:00:00Z,29.4412,-92.0613,1008.65,11111222 
WAVCIS,ioos:station:WAVCIS:CSI03:1,2013-02-08T05:00:00Z,29.4412,-92.0613,1008.97,11111222 
WAVCIS,ioos:station:WAVCIS:CSI03:1,2013-02-08T06:00:00Z,29.4412,-92.0613,1009.2,11111222 
WAVCIS,ioos:station:WAVCIS:CSI03:1,2013-02-08T07:00:00Z,29.4412,-92.0613,1009.1,11111222 
WAVCIS,ioos:station:WAVCIS:CSI03:1,2013-02-08T08:00:00Z,29.4412,-92.0613,1008.99,11111222 
WAVCIS,ioos:station:WAVCIS:CSI03:1,2013-02-08T09:00:00Z,29.4412,-92.0613,1009.67,11111222 
WAVCIS,ioos:station:WAVCIS:CSI03:1,2013-02-08T10:00:00Z,29.4412,-92.0613,1009.91,11111222 
WAVCIS,ioos:station:WAVCIS:CSI03:1,2013-02-08T11:00:00Z,29.4412,-92.0613,1010.01,11111222 
WAVCIS,ioos:station:WAVCIS:CSI03:1,2013-02-08T12:00:00Z,29.4412,-92.0613,1010.62,11111222 
WAVCIS,ioos:station:WAVCIS:CSI03:1,2013-02-08T13:00:00Z,29.4412,-92.0613,1011.23,11111222 
WAVCIS,ioos:station:WAVCIS:CSI03:1,2013-02-08T14:00:00Z,29.4412,-92.0613,1012.09,11111222 
WAVCIS,ioos:station:WAVCIS:CSI03:1,2013-02-08T15:00:00Z,29.4412,-92.0613,1012.85,11111222 
WAVCIS,ioos:station:WAVCIS:CSI03:1,2013-02-08T16:00:00Z,29.4412,-92.0613,1013.67,11111222 
WAVCIS,ioos:station:WAVCIS:CSI03:1,2013-02-08T17:00:00Z,29.4412,-92.0613,1013.84,11111222 
WAVCIS,ioos:station:WAVCIS:CSI03:1,2013-02-08T18:00:00Z,29.4412,-92.0613,1013.77,11111222 
WAVCIS,ioos:station:WAVCIS:CSI03:1,2013-02-08T19:00:00Z,29.4412,-92.0613,1013.11,11111222 
WAVCIS,ioos:station:WAVCIS:CSI03:1,2013-02-08T20:00:00Z,29.4412,-92.0613,1012.58,11111222 
WAVCIS,ioos:station:WAVCIS:CSI03:1,2013-02-08T21:00:00Z,29.4412,-92.0613,1012.34,11111222 
WAVCIS,ioos:station:WAVCIS:CSI03:1,2013-02-08T22:00:00Z,29.4412,-92.0613,1012.14,11111222 
WAVCIS,ioos:station:WAVCIS:CSI03:1,2013-02-08T23:00:00Z,29.4412,-92.0613,1012.27,11111222 
WAVCIS,ioos:station:WAVCIS:CSI03:1,2013-02-09T00:00:00Z,29.4412,-92.0613,1012.83,11111222 
WAVCIS,ioos:station:WAVCIS:CSI03:1,2013-02-09T01:00:00Z,29.4412,-92.0613,1013.3,11111222 
WAVCIS,ioos:station:WAVCIS:CSI03:1,2013-02-09T02:00:00Z,29.4412,-92.0613,1013.87,11111222 
WAVCIS,ioos:station:WAVCIS:CSI03:1,2013-02-09T03:00:00Z,29.4412,-92.0613,1014.48,11111222 
WAVCIS,ioos:station:WAVCIS:CSI03:1,2013-02-09T04:00:00Z,29.4412,-92.0613,1014.5,11111222 
WAVCIS,ioos:station:WAVCIS:CSI03:1,2013-02-09T05:00:00Z,29.4412,-92.0613,1014.52,11111222 
WAVCIS,ioos:station:WAVCIS:CSI03:1,2013-02-09T06:00:00Z,29.4412,-92.0613,1013.81,11111222 
WAVCIS,ioos:station:WAVCIS:CSI03:1,2013-02-09T07:00:00Z,29.4412,-92.0613,1013.84,11111222 
WAVCIS,ioos:station:WAVCIS:CSI03:1,2013-02-09T08:00:00Z,29.4412,-92.0613,1013.84,11111222 
WAVCIS,ioos:station:WAVCIS:CSI03:1,2013-02-09T09:00:00Z,29.4412,-92.0613,1014.06,11111222 
WAVCIS,ioos:station:WAVCIS:CSI03:1,2013-02-09T10:00:00Z,29.4412,-92.0613,1013.87,11111222 
WAVCIS,ioos:station:WAVCIS:CSI03:1,2013-02-09T11:00:00Z,29.4412,-92.0613,1013.92,11111222 
WAVCIS,ioos:station:WAVCIS:CSI03:1,2013-02-09T12:00:00Z,29.4412,-92.0613,1014.16,11111222 
WAVCIS,ioos:station:WAVCIS:CSI03:1,2013-02-09T13:00:00Z,29.4412,-92.0613,1014.33,11111222 
WAVCIS,ioos:station:WAVCIS:CSI03:1,2013-02-09T14:00:00Z,29.4412,-92.0613,1015.03,11111222 
WAVCIS,ioos:station:WAVCIS:CSI03:1,2013-02-09T15:00:00Z,29.4412,-92.0613,1015.64,11111222 
WAVCIS,ioos:station:WAVCIS:CSI03:1,2013-02-09T16:00:00Z,29.4412,-92.0613,1015.61,11111222 
WAVCIS,ioos:station:WAVCIS:CSI03:1,2013-02-09T17:00:00Z,29.4412,-92.0613,1015.09,11111222 
WAVCIS,ioos:station:WAVCIS:CSI03:1,2013-02-09T18:00:00Z,29.4412,-92.0613,1014.49,11111222 
WAVCIS,ioos:station:WAVCIS:CSI03:1,2013-02-09T19:00:00Z,29.4412,-92.0613,1013.24,11111222 
WAVCIS,ioos:station:WAVCIS:CSI03:1,2013-02-09T20:00:00Z,29.4412,-92.0613,1012.34,11111222 
WAVCIS,ioos:station:WAVCIS:CSI03:1,2013-02-09T21:00:00Z,29.4412,-92.0613,1011.38,11111222 
WAVCIS,ioos:station:WAVCIS:CSI03:1,2013-02-09T22:00:00Z,29.4412,-92.0613,1010.81,11111222 
WAVCIS,ioos:station:WAVCIS:CSI03:1,2013-02-09T23:00:00Z,29.4412,-92.0613,1010.2,11111222 
WAVCIS,ioos:station:WAVCIS:CSI03:1,2013-02-10T00:00:00Z,29.4412,-92.0613,1009.99,11111222 
WAVCIS,ioos:station:WAVCIS:CSI03:1,2013-02-10T01:00:00Z,29.4412,-92.0613,1009.6,11111222 
WAVCIS,ioos:station:WAVCIS:CSI03:1,2013-02-10T02:00:00Z,29.4412,-92.0613,1009.37,11111222 
WAVCIS,ioos:station:WAVCIS:CSI03:1,2013-02-10T03:00:00Z,29.4412,-92.0613,1009.35,11111222 
WAVCIS,ioos:station:WAVCIS:CSI03:1,2013-02-10T04:00:00Z,29.4412,-92.0613,1008.91,11111222 
WAVCIS,ioos:station:WAVCIS:CSI03:1,2013-02-10T05:00:00Z,29.4412,-92.0613,1008.58,11111222 
WAVCIS,ioos:station:WAVCIS:CSI03:1,2013-02-10T06:00:00Z,29.4412,-92.0613,1008.74,11111222 
WAVCIS,ioos:station:WAVCIS:CSI03:1,2013-02-10T07:00:00Z,29.4412,-92.0613,1008.29,11111222 
WAVCIS,ioos:station:WAVCIS:CSI03:1,2013-02-10T08:00:00Z,29.4412,-92.0613,1007.02,11111222 
WAVCIS,ioos:station:WAVCIS:CSI03:1,2013-02-10T09:00:00Z,29.4412,-92.0613,1005.72,11111222 
WAVCIS,ioos:station:WAVCIS:CSI03:1,2013-02-10T10:00:00Z,29.4412,-92.0613,1006.58,11111222 
WAVCIS,ioos:station:WAVCIS:CSI03:1,2013-02-10T11:00:00Z,29.4412,-92.0613,1006.6,11111222 
WAVCIS,ioos:station:WAVCIS:CSI03:1,2013-02-10T12:00:00Z,29.4412,-92.0613,1005.19,11111222 
WAVCIS,ioos:station:WAVCIS:CSI03:1,2013-02-10T13:00:00Z,29.4412,-92.0613,1007.58,11111222 
WAVCIS,ioos:station:WAVCIS:CSI03:1,2013-02-10T14:00:00Z,29.4412,-92.0613,1008.04,11111222 
WAVCIS,ioos:station:WAVCIS:CSI03:1,2013-02-10T15:00:00Z,29.4412,-92.0613,1007.51,11111222 
WAVCIS,ioos:station:WAVCIS:CSI03:1,2013-02-10T16:00:00Z,29.4412,-92.0613,1007.52,11111222 
WAVCIS,ioos:station:WAVCIS:CSI03:1,2013-02-10T17:00:00Z,29.4412,-92.0613,1006.94,11111222 
WAVCIS,ioos:station:WAVCIS:CSI03:1,2013-02-10T18:00:00Z,29.4412,-92.0613,1006.52,11111222 
WAVCIS,ioos:station:WAVCIS:CSI03:1,2013-02-10T19:00:00Z,29.4412,-92.0613,1006.33,11111222 
WAVCIS,ioos:station:WAVCIS:CSI03:1,2013-02-10T20:00:00Z,29.4412,-92.0613,1006.46,11111222 
WAVCIS,ioos:station:WAVCIS:CSI03:1,2013-02-10T21:00:00Z,29.4412,-92.0613,1006.11,11111222 
WAVCIS,ioos:station:WAVCIS:CSI03:1,2013-02-10T22:00:00Z,29.4412,-92.0613,1006.12,11111222 
WAVCIS,ioos:station:WAVCIS:CSI03:1,2013-02-10T23:00:00Z,29.4412,-92.0613,1006.55,11111222 
WAVCIS,ioos:station:WAVCIS:CSI03:1,2013-02-11T00:00:00Z,29.4412,-92.0613,1006.84,11111222 
WAVCIS,ioos:station:WAVCIS:CSI03:1,2013-02-11T01:00:00Z,29.4412,-92.0613,1007.3,11111222 
WAVCIS,ioos:station:WAVCIS:CSI03:1,2013-02-11T02:00:00Z,29.4412,-92.0613,1007.92,11111222 
WAVCIS,ioos:station:WAVCIS:CSI03:1,2013-02-11T03:00:00Z,29.4412,-92.0613,1008.44,11111222 
WAVCIS,ioos:station:WAVCIS:CSI03:1,2013-02-11T04:00:00Z,29.4412,-92.0613,1008.41,11111222 
WAVCIS,ioos:station:WAVCIS:CSI03:1,2013-02-11T05:00:00Z,29.4412,-92.0613,1008.74,11111222 
WAVCIS,ioos:station:WAVCIS:CSI03:1,2013-02-11T06:00:00Z,29.4412,-92.0613,1008.74,11111222 
WAVCIS,ioos:station:WAVCIS:CSI03:1,2013-02-11T07:00:00Z,29.4412,-92.0613,1008.54,11111222 
WAVCIS,ioos:station:WAVCIS:CSI03:1,2013-02-11T08:00:00Z,29.4412,-92.0613,1008.39,11111222 
WAVCIS,ioos:station:WAVCIS:CSI03:1,2013-02-11T09:00:00Z,29.4412,-92.0613,1007.98,11111222 
WAVCIS,ioos:station:WAVCIS:CSI03:1,2013-02-11T10:00:00Z,29.4412,-92.0613,1008.55,11111222 
WAVCIS,ioos:station:WAVCIS:CSI03:1,2013-02-11T11:00:00Z,29.4412,-92.0613,1008.76,11111222 
WAVCIS,ioos:station:WAVCIS:CSI03:1,2013-02-11T12:00:00Z,29.4412,-92.0613,1009.26,11111222 
WAVCIS,ioos:station:WAVCIS:CSI03:1,2013-02-11T13:00:00Z,29.4412,-92.0613,1009.84,11111222 
WAVCIS,ioos:station:WAVCIS:CSI03:1,2013-02-11T14:00:00Z,29.4412,-92.0613,1010.72,11111222 
WAVCIS,ioos:station:WAVCIS:CSI03:1,2013-02-11T15:00:00Z,29.4412,-92.0613,1011.19,11111222 
WAVCIS,ioos:station:WAVCIS:CSI03:1,2013-02-11T16:00:00Z,29.4412,-92.0613,1011.59,11111222 
WAVCIS,ioos:station:WAVCIS:CSI03:1,2013-02-11T17:00:00Z,29.4412,-92.0613,1012.11,11111222 
WAVCIS,ioos:station:WAVCIS:CSI03:1,2013-02-11T18:00:00Z,29.4412,-92.0613,1011.18,11111222 
WAVCIS,ioos:station:WAVCIS:CSI03:1,2013-02-11T19:00:00Z,29.4412,-92.0613,1010.53,11111222 
WAVCIS,ioos:station:WAVCIS:CSI03:1,2013-02-11T20:00:00Z,29.4412,-92.0613,1009.49,11111222 
WAVCIS,ioos:station:WAVCIS:CSI03:1,2013-02-11T21:00:00Z,29.4412,-92.0613,1009.16,11111222 
WAVCIS,ioos:station:WAVCIS:CSI03:1,2013-02-11T22:00:00Z,29.4412,-92.0613,1008.93,11111222 